星链-1899 (STARLINK-1899 )

导读 | 豆包AI

STARLINK-1899是美国SpaceX公司星链(Starlink)星座中的V1.0版本卫星,于2020年10月24日发射入轨。它运行在近地轨道,近地点约546公里、远地点约548公里,轨道倾角53.05度,为全球提供低轨宽带互联网服务。作为星链网络的组成部分,它助力扩展星座覆盖范围,提升星链全球接入能力,目前仍在轨正常工作。

Basic Information
目录编号:
46787
目录名称:
STARLINK-1899
国际标识:
2020-074BA
轨道中心:
EARTH
卫星名称:
星链-1899
卫星全名:
星链-1899 (STARLINK-1899 )
卫星状态:
已陨落 最后检测时间 2024-10-15
发射日期:
2020-10-24 UTC
国别 :
美国 (US)
星等 :
--
Orbit Information
数据来源 国际轨道数据
星历时间: 2024-10-16T03:08:19+0800
轨道信息已过期514天
半长轴: 6541.486km
偏心率: 0.0006532
轨道倾角: 53.020°
近地点辐角 305.870°
升交点赤经 355.073°
平近点角 153.346°
近地点: 159.078km
远地点: 167.624km
周期: 87.755分钟
每日圈数: 16.409228
Detailed Information
固有亮度:
5
最大亮度:
2.5
卫星平台:
Starlink V1.0
覆盖范围:
全球
运营商:
太空探索技术公司
运营商所在国:
美国
制造商(研发单位):
太空探索技术公司
制造商所在国:
美国
使用方式:
暂无
Satellite Introduction
星链(Starlink)计划是由太空探索技术公司(SpaceX)提出的一个巨型低轨卫星互联网星座项目,计划在2019年至2024年间在太空搭建由约1.2万颗卫星组成的“星链”网络,其中1584颗将部署在地球上空550千米处的近地轨道,并从2020年开始工作。该卫星仍在工作。